Regional Weather Roundup
Issued by NWS

Home | Current Version | Previous Version | Graphics & Text | Print | Product List | Glossary On
Versions: 1 2 3 4 5 6 7 8 9 10 11 12 13 14 15 16 17 18 19 20 21 22 23 24 25 26 27 28 29 30 31 32 33 34 35 36 37 38 39 40 41 42 43 44 45 46 47 48 49 50
217
ASUS44 KLIX 250105
RWRLA
LOUISIANA WEATHER ROUNDUP
NATIONAL WEATHER SERVICE NEW ORLEANS LA
800 PM CDT THU APR 24 2014

NOTE: "FAIR" INDICATES FEW OR NO CLOUDS BELOW 12,000 FEET WITH NO
      SIGNIFICANT WEATHER AND/OR OBSTRUCTIONS TO VISIBILITY.
      SKY/WX - SKY CONDITION AND SIGNIFICANT WEATHER.
      TMP - AIR TEMPERATURE.    DP   - DEWPOINT TEMPERATURE.
      RH  - RELATIVE HUMIDITY.  PRES - PRESSURE.
      HX  - HEAT INDEX.         WCI  - WIND CHILL INDEX.

*  THESE STATIONS ARE NOT NWS OR FAA STATIONS AND ARE NOT UNDER
   NWS QUALITY CONTROL.

LAZ040-048-061>063-065-066-069-250200-
SOUTHEAST LOUISIANA

CITY           SKY/WX    TMP DP  RH WIND       PRES   REMARKS
N.O. AUDUBON     N/A     74  66  75 MISG        N/A
N.O. INTL ARPT PTCLDY    73  66  78 S9        29.90R
N.O. LAKEFRONT MOCLDY    74  66  76 S13       29.91R
N.O. DOWNTOWN* MOCLDY    77  63  61 S8        29.91R
SLIDELL        MOCLDY    75  65  70 S7        29.89R
BATON ROUGE    PTCLDY    76  63  64 S14       29.87R
BOOTHVILLE     MOCLDY    72  68  87 S10       29.92R
BELLE CHASSE   MOCLDY    73  65  75 SW6       29.90S
BOGALUSA*        N/A     75  65  71 S9        29.89S
GALLIANO*      MOCLDY    74  66  75 S8        29.91S
NEW ROADS*     MOCLDY    74  63  67 S9        29.88R
GONZALES*      FAIR      74  65  75 S6        29.88S
HAMMOND*       PTCLDY    75  63  64 S9        29.89R
HOUMA*           N/A     73  64  75 S5        29.90S
PORT FOURCHON* MOCLDY    73  68  83 VRB7      29.93R

$$

LAZ041-044-053-054-250200-
SOUTHWEST LOUISIANA

CITY           SKY/WX    TMP DP  RH WIND       PRES   REMARKS
LAKE CHARLES   CLOUDY    73  67  81 S8        29.87S
LAFAYETTE      PTCLDY    73  66  78 S10       29.88R
PATTERSON      CLOUDY    72  66  83 S9        29.93S
SALT POINT       N/A     74  69  85 CALM      29.90S
NEW IBERIA     PTCLDY    73  66  78 S12       29.89S
CHENAULT AIRPK MOCLDY    73  66  78 S12       29.88S

$$

LAZ027-028-250200-
CENTRAL LOUISIANA

CITY           SKY/WX    TMP DP  RH WIND       PRES   REMARKS
FORT POLK      CLOUDY    74  65  73 SW5       29.86R
ALEXANDRIA INT CLOUDY    76  65  68 SW13      29.83R
ALEXANDRIA     CLOUDY    77  65  66 SW12      29.84R

$$

LAZ001-002-250200-
NORTHWEST LOUISIANA

CITY           SKY/WX    TMP DP  RH WIND       PRES   REMARKS
SHREVEPORT     PTCLDY    75  66  73 SW9       29.79R
BARKSDALE AFB  NOT AVBL
DTN SHREVEPORT CLOUDY    76  65  68 SW12      29.80R

$$

LAZ014-016-250200-
NORTHEAST LOUISIANA

CITY           SKY/WX    TMP DP  RH WIND       PRES   REMARKS
MONROE         MOCLDY    73  66  78 SW10      29.81R
TALLULAH       CLOUDY    79  64  60 SW9G18    29.80R

$$




USA.gov is the U.S. government's official web portal to all federal, state and local government web resources and services.